Location: Mahannah Oil Field
(37.4664°N, 96.6003°W)
Time: 15:40:13
(UTC+00:00)

Vanguard 2 Rocket - Pass Details

Date: 25 January 2021
Orbit: 554 x 3325 km, 32.9° (Epoch: 06 March)

Event Time Altitude Azimuth Distance (km) Brightness Sun altitude
Rises 18:31:06 0° 212° (SSW) 7,298 12.2 33.7°
Reaches altitude 10° 18:37:07 10° 203° (SSW) 6,176 12.3 33.8°
Maximum altitude 18:52:15 31° 150° (SSE) 3,934 11.4 33.7°
Drops below altitude 10° 19:03:08 10° 95° (E) 4,453 10.5 33.5°
Sets 19:06:34 0° 85° (E) 5,082 10.6 33.4°
